Regional Weather Roundup
Issued by NWS

Home | Current Version | Previous Version | Graphics & Text | Print | Product List | Glossary On
Versions: 1 2 3 4 5 6 7 8 9 10 11 12 13 14 15 16 17 18 19 20 21 22 23 24 25 26 27 28 29 30 31 32 33 34 35 36 37 38 39 40 41 42 43 44 45 46 47 48 49 50
000
ASUS43 KFSD 260710
RWRSD

WEATHER ROUNDUP FOR SOUTH DAKOTA
NATIONAL WEATHER SERVICE SIOUX FALLS SD
200 AM CDT FRI MAY 26 2017

NOTE: "FAIR" INDICATES FEW OR NO CLOUDS BELOW 12,000 FEET WITH NO
SIGNIFICANT WEATHER AND/OR OBSTRUCTIONS TO VISIBILITY.


SDZ001>005-009-010-012>017-260800-
NORTHWEST AND NORTH CENTRAL SOUTH DAKOTA

CITY           SKY/WX    TMP DP  RH WIND       PRES   REMARKS
BUFFALO          N/A     46  40  79 W14       29.71F
FAITH            N/A     47  41  80 W14       29.75S
MOBRIDGE       CLEAR     51  43  74 NW9       29.67S
$$

SDZ012>016-024>037-041>051-057-063-072>074-260800-
SOUTHWEST AND SOUTH CENTRAL SOUTH DAKOTA

CITY           SKY/WX    TMP DP  RH WIND       PRES   REMARKS
RAPID CTY ARPT CLEAR     44  35  70 NW6       29.83R
PIERRE         CLOUDY    56  43  61 NW13      29.73R
CUSTER         CLEAR     43  27  53 NW10      29.87R
ELLSWORTH AFB  CLEAR     46  37  70 NW12      29.82R
PHILIP         CLOUDY    49  41  74 W8        29.78R
PINE RIDGE     PTCLDY    46  41  82 SW7       29.85R
SPEARFISH      FAIR      46  36  66 W15G23    29.85R
WINNER         FAIR      54  45  71 NW7       29.76R
$$

SDZ004>011-016>023-039-040-260800-
NORTHEAST SOUTH DAKOTA

CITY           SKY/WX    TMP DP  RH WIND       PRES   REMARKS
ABERDEEN       CLEAR     56  42  59 NW9       29.65R
WATERTOWN      PTCLDY    50  49  96 SW5       29.65R
BROOKINGS      CLEAR     53  51  93 SE3       29.65F
SISSETON         N/A     59  54  83 SW6       29.60S
$$

SDZ017-020-022-023-036>040-048>070-260800-
SOUTHEAST SOUTH DAKOTA

CITY           SKY/WX    TMP DP  RH WIND       PRES   REMARKS
SIOUX FALLS    CLOUDY    55  52  89 CALM      29.65F
HURON          CLOUDY    52  46  80 NW9       29.66R
CHAMBERLAIN    CLOUDY    60  46  59 NW16      29.71S
MITCHELL       MOCLDY    58  48  69 W9        29.67R
YANKTON        MOCLDY    59  55  87 NW6       29.65S
$$

ABBREVIATIONS USED IN REMARKS
   TC - TEMPERATURE IN CELSIUS
  WCI - WIND CHILL INDEX
   HX - HEAT INDEX
  VSB - VISIBILITY





USA.gov is the U.S. government's official web portal to all federal, state and local government web resources and services.